| time (UTC) | temp F | wind direction | speed knots | gust knots | rain 1hr in | rain 24hr in | rain mn in | humidity % | barometer mb |
| 20260506143505 | 79 | 67 | 0.0 | 0.0 | 0.00 | 0.00 | 0.00 | 80 | 1009.3 |
| 20260506143212 | 78 | 66 | 0.0 | 0.0 | 0.00 | 0.00 | 0.00 | 81 | 1009.6 |
| 20260506142505 | 78 | 151 | 3.5 | 0.0 | 0.00 | 0.00 | 0.00 | 81 | 1009.3 |
| 20260506142005 | 77 | 59 | 3.5 | 0.0 | 0.00 | 0.00 | 0.00 | 81 | 1009.3 |
| 20260506141711 | 77 | 101 | 7.8 | 0.0 | 0.00 | 0.00 | 0.00 | 82 | 1009.3 |
| 20260506141005 | 77 | 141 | 15.6 | 0.0 | 0.00 | 0.00 | 0.00 | 81 | 1009.3 |
| 20260506140505 | 77 | 110 | 7.8 | 0.0 | 0.00 | 0.00 | 0.00 | 81 | 1009.3 |
| 20260506140005 | 78 | 166 | 11.3 | 0.0 | 0.00 | 0.00 | 0.00 | 81 | 1009.6 |
| 20260506135713 | 77 | 34 | 3.5 | 0.0 | 0.00 | 0.00 | 0.00 | 81 | 1009.3 |
| 20260506135005 | 77 | 166 | 3.5 | 0.0 | 0.00 | 0.00 | 0.00 | 82 | 1009.6 |
| 20260506134505 | 77 | 118 | 0.0 | 0.0 | 0.00 | 0.00 | 0.00 | 82 | 1009.3 |
| 20260506134004 | 77 | 129 | 0.0 | 0.0 | 0.00 | 0.00 | 0.00 | 83 | 1009.3 |
| 20260506133505 | 77 | 92 | 3.5 | 0.0 | 0.00 | 0.00 | 0.00 | 83 | 1009.6 |
| 20260506133005 | 77 | 114 | 0.0 | 0.0 | 0.00 | 0.00 | 0.00 | 84 | 1009.3 |
| 20260506132505 | 77 | 147 | 3.5 | 0.0 | 0.00 | 0.00 | 0.00 | 84 | 1009.3 |
| 20260506132005 | 77 | 140 | 7.8 | 0.0 | 0.00 | 0.00 | 0.00 | 84 | 1009.3 |
| 20260506131505 | 77 | 124 | 0.0 | 0.0 | 0.00 | 0.00 | 0.00 | 84 | 1008.9 |
| 20260506131005 | 77 | 162 | 3.5 | 0.0 | 0.00 | 0.00 | 0.00 | 85 | 1008.9 |
| 20260506130505 | 77 | 21 | 11.3 | 0.0 | 0.00 | 0.00 | 0.00 | 85 | 1008.9 |
| 20260506130005 | 76 | 120 | 3.5 | 0.0 | 0.00 | 0.00 | 0.00 | 86 | 1008.9 |
| 20260506125505 | 76 | 85 | 0.0 | 0.0 | 0.00 | 0.00 | 0.00 | 87 | 1008.9 |
| 20260506125005 | 76 | 141 | 0.0 | 0.0 | 0.00 | 0.00 | 0.00 | 87 | 1008.9 |
| 20260506124713 | 76 | 123 | 0.0 | 0.0 | 0.00 | 0.00 | 0.00 | 87 | 1008.9 |
| 20260506124005 | 76 | 121 | 0.0 | 0.0 | 0.00 | 0.00 | 0.00 | 87 | 1008.9 |
| 20260506123505 | 77 | 88 | 0.0 | 0.0 | 0.00 | 0.00 | 0.00 | 87 | 1008.6 |
| 20260506123212 | 77 | 86 | 3.5 | 0.0 | 0.00 | 0.00 | 0.00 | 86 | 1008.6 |
| 20260506122505 | 77 | 124 | 3.5 | 0.0 | 0.00 | 0.00 | 0.00 | 86 | 1008.2 |
| 20260506122005 | 77 | 87 | 0.0 | 0.0 | 0.00 | 0.00 | 0.00 | 86 | 1008.2 |
| 20260506121505 | 77 | 90 | 0.0 | 0.0 | 0.00 | 0.00 | 0.00 | 86 | 1007.9 |
| 20260506121213 | 77 | 87 | 0.0 | 0.0 | 0.00 | 0.00 | 0.00 | 86 | 1007.9 |
| 20260506120504 | 77 | 85 | 3.5 | 0.0 | 0.00 | 0.00 | 0.00 | 86 | 1007.9 |
| 20260506120005 | 77 | 109 | 0.0 | 0.0 | 0.00 | 0.00 | 0.00 | 85 | 1007.9 |
| 20260506115505 | 77 | 106 | 0.0 | 0.0 | 0.00 | 0.00 | 0.00 | 85 | 1007.9 |
| 20260506115005 | 77 | 96 | 0.0 | 0.0 | 0.00 | 0.00 | 0.00 | 85 | 1007.9 |
| 20260506114505 | 77 | 147 | 3.5 | 0.0 | 0.00 | 0.00 | 0.00 | 85 | 1007.2 |
| 20260506114005 | 77 | 95 | 0.0 | 0.0 | 0.00 | 0.00 | 0.00 | 85 | 1007.6 |
| 20260506113712 | 77 | 128 | 0.0 | 0.0 | 0.00 | 0.00 | 0.00 | 85 | 1007.2 |
| 20260506113213 | 77 | 65 | 3.5 | 0.0 | 0.00 | 0.00 | 0.00 | 85 | 1007.2 |
| 20260506112505 | 77 | 119 | 0.0 | 0.0 | 0.00 | 0.00 | 0.00 | 85 | 1007.2 |
| 20260506112005 | 77 | 146 | 3.5 | 0.0 | 0.00 | 0.00 | 0.00 | 85 | 1007.2 |
| 20260506111504 | 77 | 52 | 3.5 | 0.0 | 0.00 | 0.00 | 0.00 | 85 | 1007.2 |
| 20260506111004 | 77 | 125 | 0.0 | 0.0 | 0.00 | 0.00 | 0.00 | 85 | 1007.2 |
| 20260506110505 | 77 | 54 | 0.0 | 0.0 | 0.00 | 0.00 | 0.00 | 85 | 1007.2 |
| 20260506110005 | 77 | 76 | 3.5 | 0.0 | 0.00 | 0.00 | 0.00 | 85 | 1006.9 |
| 20260506105505 | 77 | 149 | 0.0 | 0.0 | 0.00 | 0.00 | 0.00 | 85 | 1006.9 |
| 20260506105213 | 77 | 77 | 0.0 | 0.0 | 0.00 | 0.00 | 0.00 | 85 | 1006.9 |
| 20260506104504 | 77 | 101 | 0.0 | 0.0 | 0.00 | 0.00 | 0.00 | 84 | 1006.9 |
| 20260506104005 | 77 | 162 | 3.5 | 0.0 | 0.00 | 0.00 | 0.00 | 84 | 1006.5 |
| 20260506103505 | 77 | 157 | 3.5 | 0.0 | 0.00 | 0.00 | 0.00 | 84 | 1006.5 |
| 20260506103211 | 77 | 86 | 7.8 | 0.0 | 0.00 | 0.00 | 0.00 | 84 | 1006.5 |
| 20260506102505 | 77 | 126 | 3.5 | 0.0 | 0.00 | 0.00 | 0.00 | 84 | 1006.5 |
| 20260506102005 | 77 | 91 | 3.5 | 0.0 | 0.00 | 0.00 | 0.00 | 84 | 1006.2 |
| 20260506101712 | 77 | 119 | 3.5 | 0.0 | 0.00 | 0.00 | 0.00 | 84 | 1006.2 |
| 20260506101005 | 77 | 64 | 3.5 | 0.0 | 0.00 | 0.00 | 0.00 | 84 | 1006.2 |
| 20260506100505 | 77 | 134 | 3.5 | 0.0 | 0.00 | 0.00 | 0.00 | 84 | 1006.2 |
| 20260506100005 | 77 | 120 | 0.0 | 0.0 | 0.00 | 0.00 | 0.00 | 84 | 1006.2 |
| 20260506095505 | 77 | 64 | 3.5 | 0.0 | 0.00 | 0.00 | 0.00 | 84 | 1006.2 |
| 20260506095005 | 77 | 28 | 3.5 | 0.0 | 0.00 | 0.00 | 0.00 | 84 | 1006.2 |
| 20260506094505 | 77 | 162 | 7.8 | 0.0 | 0.00 | 0.00 | 0.00 | 84 | 1006.2 |
| 20260506094005 | 77 | 53 | 3.5 | 0.0 | 0.00 | 0.00 | 0.00 | 84 | 1006.2 |
| 20260506093505 | 77 | 152 | 11.3 | 0.0 | 0.00 | 0.00 | 0.00 | 84 | 1006.2 |
| 20260506093005 | 77 | 52 | 7.8 | 0.0 | 0.00 | 0.00 | 0.00 | 84 | 1006.2 |
| 20260506092505 | 77 | 128 | 7.8 | 0.0 | 0.00 | 0.00 | 0.00 | 84 | 1006.2 |
| 20260506092004 | 77 | 89 | 11.3 | 0.0 | 0.00 | 0.00 | 0.00 | 84 | 1006.2 |
| 20260506091505 | 77 | 90 | 11.3 | 0.0 | 0.00 | 0.00 | 0.00 | 84 | 1006.2 |
| 20260506091005 | 77 | 25 | 3.5 | 0.0 | 0.00 | 0.00 | 0.00 | 84 | 1006.2 |
| 20260506090505 | 77 | 115 | 15.6 | 0.0 | 0.00 | 0.00 | 0.00 | 84 | 1006.2 |
| 20260506090005 | 77 | 165 | 7.8 | 0.0 | 0.00 | 0.00 | 0.00 | 84 | 1006.2 |
| 20260506085505 | 77 | 178 | 0.0 | 0.0 | 0.00 | 0.00 | 0.00 | 84 | 1006.2 |
| 20260506085212 | 77 | 154 | 3.5 | 0.0 | 0.00 | 0.00 | 0.00 | 84 | 1006.5 |
| 20260506084713 | 77 | 75 | 7.8 | 0.0 | 0.00 | 0.00 | 0.00 | 84 | 1006.5 |
| 20260506084005 | 77 | 152 | 15.6 | 0.0 | 0.00 | 0.00 | 0.00 | 84 | 1006.5 |
| 20260506083713 | 77 | 135 | 11.3 | 0.0 | 0.00 | 0.00 | 0.00 | 84 | 1006.5 |
| 20260506083212 | 77 | 89 | 7.8 | 0.0 | 0.00 | 0.00 | 0.00 | 85 | 1006.5 |
| 20260506082711 | 77 | 98 | 3.5 | 0.0 | 0.00 | 0.00 | 0.00 | 85 | 1006.5 |
| 20260506082005 | 77 | 48 | 7.8 | 0.0 | 0.00 | 0.00 | 0.00 | 85 | 1006.5 |
| 20260506081505 | 77 | 47 | 7.8 | 0.0 | 0.00 | 0.00 | 0.00 | 85 | 1006.5 |
| 20260506081212 | 77 | 108 | 7.8 | 0.0 | 0.00 | 0.00 | 0.00 | 85 | 1006.5 |
| 20260506080505 | 77 | 145 | 11.3 | 0.0 | 0.00 | 0.00 | 0.00 | 85 | 1006.9 |
| 20260506073505 | 77 | 44 | 7.8 | 0.0 | 0.00 | 0.00 | 0.00 | 85 | 1007.2 |
| 20260506073005 | 77 | 59 | 7.8 | 0.0 | 0.00 | 0.00 | 0.00 | 85 | 1006.9 |
| 20260506072505 | 77 | 77 | 7.8 | 0.0 | 0.00 | 0.00 | 0.00 | 85 | 1006.9 |
| 20260506072214 | 77 | 135 | 3.5 | 0.0 | 0.00 | 0.00 | 0.00 | 85 | 1006.9 |
| 20260506071505 | 77 | 122 | 7.8 | 0.0 | 0.00 | 0.00 | 0.00 | 85 | 1007.2 |
| 20260506071212 | 77 | 85 | 15.6 | 0.0 | 0.00 | 0.00 | 0.00 | 85 | 1006.9 |
| 20260506070505 | 77 | 105 | 11.3 | 0.0 | 0.00 | 0.00 | 0.00 | 85 | 1006.9 |
| 20260506062505 | 77 | 104 | 20.0 | 0.0 | 0.00 | 0.00 | 0.00 | 84 | 1007.6 |
| 20260506062213 | 77 | 98 | 11.3 | 0.0 | 0.00 | 0.00 | 0.00 | 83 | 1007.6 |
| 20260506061505 | 77 | 129 | 11.3 | 0.0 | 0.00 | 0.00 | 0.00 | 83 | 1007.6 |
| 20260506061213 | 77 | 79 | 7.8 | 0.0 | 0.00 | 0.00 | 0.00 | 83 | 1007.9 |
| 20260506060712 | 77 | 44 | 7.8 | 0.0 | 0.00 | 0.00 | 0.00 | 83 | 1007.6 |
| 20260506051006 | 77 | 319 | 7.8 | 0.0 | 0.00 | 0.00 | 0.00 | 81 | 1007.9 |
| 20260506050505 | 77 | 65 | 7.8 | 0.0 | 0.00 | 0.00 | 0.00 | 81 | 1008.2 |
| 20260506045004 | 77 | 49 | 15.6 | 0.0 | 0.00 | 0.00 | 0.00 | 80 | 1008.2 |
| 20260506044712 | 77 | 175 | 7.8 | 0.0 | 0.00 | 0.00 | 0.00 | 80 | 1007.9 |
| 20260506044005 | 77 | 149 | 7.8 | 0.0 | 0.00 | 0.00 | 0.00 | 80 | 1007.9 |
| 20260506043505 | 77 | 141 | 7.8 | 0.0 | 0.00 | 0.00 | 0.00 | 80 | 1008.2 |
| 20260506043005 | 77 | 44 | 15.6 | 0.0 | 0.00 | 0.00 | 0.00 | 80 | 1008.2 |
| 20260506042505 | 77 | 88 | 11.3 | 0.0 | 0.00 | 0.00 | 0.00 | 80 | 1008.2 |
| 20260506042213 | 77 | 95 | 7.8 | 0.0 | 0.00 | 0.00 | 0.00 | 80 | 1008.2 |
| 20260506041505 | 77 | 10 | 11.3 | 0.0 | 0.00 | 0.00 | 0.00 | 80 | 1008.2 |
| 20260506041005 | 77 | 82 | 3.5 | 0.0 | 0.00 | 0.00 | 0.00 | 80 | 1008.2 |
| 20260506040505 | 77 | 50 | 3.5 | 0.0 | 0.00 | 0.00 | 0.00 | 80 | 1008.2 |
| 20260506040005 | 77 | 50 | 3.5 | 0.0 | 0.00 | 0.00 | 0.00 | 80 | 1008.2 |
| 20260506035505 | 77 | 105 | 11.3 | 0.0 | 0.00 | 0.00 | 0.00 | 80 | 1008.2 |
| 20260506035005 | 77 | 116 | 7.8 | 0.0 | 0.00 | 0.00 | 0.00 | 79 | 1007.9 |
| 20260506034505 | 77 | 62 | 7.8 | 0.0 | 0.00 | 0.00 | 0.00 | 79 | 1007.9 |
| 20260506034005 | 77 | 116 | 3.5 | 0.0 | 0.00 | 0.00 | 0.00 | 79 | 1007.9 |
| 20260506033506 | 77 | 86 | 15.6 | 0.0 | 0.00 | 0.00 | 0.00 | 79 | 1007.9 |
| 20260506033212 | 78 | 51 | 7.8 | 0.0 | 0.00 | 0.00 | 0.00 | 79 | 1007.6 |
| 20260506032505 | 78 | 58 | 7.8 | 0.0 | 0.00 | 0.00 | 0.00 | 79 | 1007.9 |
| 20260506032005 | 78 | 75 | 23.5 | 0.0 | 0.00 | 0.00 | 0.00 | 79 | 1007.9 |
| 20260506031505 | 78 | 33 | 11.3 | 0.0 | 0.00 | 0.00 | 0.00 | 79 | 1007.9 |
| 20260506031005 | 78 | 172 | 7.8 | 0.0 | 0.00 | 0.00 | 0.00 | 79 | 1007.9 |
| 20260506030505 | 78 | 58 | 15.6 | 0.0 | 0.00 | 0.00 | 0.00 | 79 | 1007.6 |
| 20260506030212 | 78 | 84 | 3.5 | 0.0 | 0.00 | 0.00 | 0.00 | 78 | 1007.6 |
| 20260506025505 | 78 | 136 | 7.8 | 0.0 | 0.00 | 0.00 | 0.00 | 78 | 1007.6 |
| 20260506025005 | 78 | 72 | 3.5 | 0.0 | 0.00 | 0.00 | 0.00 | 78 | 1007.6 |
| 20260506024505 | 78 | 65 | 7.8 | 0.0 | 0.00 | 0.00 | 0.00 | 78 | 1007.2 |
| 20260506024212 | 78 | 90 | 7.8 | 0.0 | 0.00 | 0.00 | 0.00 | 78 | 1007.2 |
| 20260506023504 | 78 | 77 | 7.8 | 0.0 | 0.00 | 0.00 | 0.00 | 78 | 1007.2 |
| 20260506023005 | 78 | 147 | 7.8 | 0.0 | 0.00 | 0.00 | 0.00 | 77 | 1007.2 |
| 20260506022505 | 78 | 92 | 3.5 | 0.0 | 0.00 | 0.00 | 0.00 | 77 | 1007.2 |
| 20260506022005 | 78 | 37 | 11.3 | 0.0 | 0.00 | 0.00 | 0.00 | 77 | 1007.2 |
| 20260506021505 | 78 | 55 | 23.5 | 0.0 | 0.00 | 0.00 | 0.00 | 77 | 1007.2 |
| 20260506021007 | 78 | 170 | 3.5 | 0.0 | 0.00 | 0.00 | 0.00 | 77 | 1007.2 |